Regional Weather Roundup
Issued by NWS Wakefield, VA

Home | Current Version | Previous Version | Graphics & Text | Print | Product List | Glossary On
Versions: 1 2 3 4 5 6 7 8 9 10 11 12 13 14 15 16 17 18 19 20 21 22 23 24 25 26 27 28 29 30 31 32 33 34 35 36 37 38 39 40 41 42 43 44 45 46 47 48 49 50
000
ASUS41 KAKQ 040614
RWRAKQ

REGIONAL WEATHER ROUNDUP
NATIONAL WEATHER SERVICE WAKEFIELD VA
200 AM EDT FRI SEP 04 2015

Note: "fair" indicates few or no clouds below 12,000 feet with no
significant weather and/or obstructions to visibility. * = Denotes
station may not report precipitation (e.g., rain,snow,etc.),
thunder or fog.

VAZ042-051-052>054-056-040700-
NORTHERN VIRGINIA

CITY           SKY/WX    TMP DP  RH WIND       PRES   REMARKS
WASH NATIONAL  MOCLDY    79  69  71 N6        29.91S
DULLES         PTCLDY    77  67  71 NW5       29.92S
FORT BELVOIR   PTCLDY    71  69  92 CALM      29.90S
QUANTICO       PTCLDY    76  70  82 NW7       29.91S
FREDERICKSBRG* MOCLDY    74  72  93 CALM      29.91R
STAFFORD*      PTCLDY    70  68  93 NW3       29.95S FOG
WARRENTON      PTCLDY    71  69  96 CALM      29.92S
CULPEPER*      MOCLDY    70  69  95 N5        29.93S
MANASSAS*      PTCLDY    72  72 100 CALM      29.92R
LEESBURG*      PTCLDY    73  72  94 N3        29.94S
WINCHESTER     PTCLDY    70  68  94 CALM      29.96S
FRONT ROYAL*   FAIR      70  68  94 S6        29.96R
LURAY*         FAIR      68  68 100 CALM      29.98S FOG
$$

VAZ048-049-060>072-079>083-040700-
CENTRAL AND SOUTH CENTRAL VIRGINIA

CITY           SKY/WX    TMP DP  RH WIND       PRES   REMARKS
RICHMOND       PTCLDY    77  70  79 N3        29.90S
CHESTERFIELD*  FAIR      72  61  68 CALM      29.91S
PETERSBURG*      N/A     71  71 100 CALM      29.91S FOG
HANOVER        PTCLDY    72  71  97 CALM      29.92S FOG
TAPPAHANNOCK*  PTCLDY    71  68  90 CALM      29.90S FOG
QUINTON*       FAIR      71  71  99 CALM      29.89S FOG
CHARLOTTSVILLE PTCLDY    73  68  84 CALM      29.94R
GORDONSVILLE*  FAIR      71  69  92 CALM      29.93R
ORANGE*        MOCLDY    72  68  88 CALM      29.94S
LOUISA*        MOCLDY    73  70  88 NW3       29.92S
BUMPASS*       FAIR      70  69  97 CALM      29.92S
FARMVILLE*     CLEAR     69  69 100 CALM      29.92S
CREWE*         FAIR     N/A N/A N/A CALM      29.92S
FORT PICKETT*  FAIR      71  70  94 NW3       29.92S
CHASE CITY*    FAIR      73  73 100 CALM      29.92S
CLARKSVILLE*   FAIR      70  70 100 CALM      29.92S
SOUTH HILL*    CLEAR     69  68  98 CALM      29.98R
LAWRENCEVILLE* FAIR      72  72 100 CALM      29.91S
EMPORIA*       FOG       68  68 100 CALM      29.92S VSB<1/4
$$

VAZ088>098-040700-
SOUTHEAST VIRGINIA

CITY           SKY/WX    TMP DP  RH WIND       PRES   REMARKS
NORFOLK        CLEAR     76  71  85 SW3       29.88F
VIRGINIA BEACH PTCLDY    78  70  76 SW3       29.88S
NORFOLK NAVAL  PTCLDY    75  72  90 CALM      29.90S FOG
WEST POINT*    CLEAR     73  70  91 CALM      29.90S
SALUDA*        FAIR      74  70  88 W8        29.88S
NEWPORT NEWS   CLEAR     73  71  93 CALM      29.89S FOG
LANGLEY AFB    CLEAR     74  72  93 W2        29.88S
FORT EUSTIS    CLEAR     73 N/A N/A CALM      29.87S
WILLIAMSBURG*  CLEAR     77  75  94 CALM      29.90S
HR EXEC AP*      N/A     68  64  88 CALM      29.91S
FRANKLIN*      CLEAR     71  70  98 CALM      29.90S
WAKEFIELD      CLEAR     72  69  90 CALM      29.89F FOG
$$

VAZ020-022-025-037-045-040700-
WEST CENTRAL AND SOUTHWEST VIRGINIA

CITY           SKY/WX    TMP DP  RH WIND       PRES   REMARKS
STAUNTON*      FOG       68  66  94 CALM      30.02S VSB 1
WAYNESBORO*    FAIR      68  65  92 CALM      30.01S
HOT SPRINGS VA CLEAR     68  63  83 N7        30.11F
LYNCHBURG      CLEAR     70  66  87 CALM      29.97S
DANVILLE       CLEAR     70  67  90 CALM      29.93S FOG
SOUTH BOSTON*  FAIR      69  67  95 CALM      29.93R
MARTINSVILLE   CLEAR     67  67 100 CALM      29.99R FOG
ROANOKE        CLEAR     74  66  76 NE3       30.00S
BLACKSBURG     CLEAR     65  65 100 CALM      30.07S FOG
DUBLIN*        MOCLDY    68  66  95 CALM      30.06S
MARION*        PTCLDY    66  64  94 CALM      30.10S FOG
HILLSVILLE*    PTCLDY    69  64  86 CALM      30.07R
RICHLANDS*     FAIR      66  40  37 CALM      30.08F HAZE
WISE*          CLEAR     68  66  94 CALM      30.10F
ABINGDON*      CLEAR     68  64  87 CALM      30.06S
$$

MDZ021>025-VAZ099-100-040700-
SOUTHERN MARYLAND AND THE DELMARVA PENINSULA

CITY           SKY/WX    TMP DP  RH WIND       PRES   REMARKS
PATUXENT RIVER PTCLDY    72  69  90 W5        29.88F
BAY BRIDGE APT   N/A     77  72  83 NW3       29.89S
LEONARDTOWN    NOT AVBL
DOVER          PTCLDY    74  74  99 CALM      29.87F FOG
GEORGETOWN     CLEAR     72  68  87 CALM      29.89S
EASTON         NOT AVBL
CAMBRIDGE      PTCLDY    72  68  88 CALM      29.88F
SALISBURY      CLEAR     72  70  93 CALM      29.89S FOG
OCEAN CITY     CLEAR     73  70  90 NW5       29.88S
WALLOPS ISLAND CLEAR     75  74  96 NW6       29.89S FOG
ACCOMACK*      CLEAR     68  63  83 CALM      29.86F FOG
$$

NCZ012>017-030>032-040700-
NORTH CENTRAL AND EASTERN NORTH CAROLINA

CITY           SKY/WX    TMP DP  RH WIND       PRES   REMARKS
ROANOKE RAPIDS FAIR      68  68 100 CALM      29.91S FOG
RALEIGH        PTCLDY    70  67  90 CALM      29.92F
ELIZABETH CITY PTCLDY    73  71  93 CALM      29.89F
AHOSKIE*       CLEAR     70  70  98 CALM      29.91S FOG
EDENTON*       PTCLDY    73  70  92 CALM      29.90S
CURRITUCK*     PTCLDY    73  70  89 CALM      29.90S
KILL DEVIL HLS PTCLDY    76  72  89 SW3       29.88F
MANTEO         PTCLDY    74  73  93 CALM      29.90S
CAPE HATTERAS  PTCLDY    75  73  93 W3        29.90S
TARBORO*       FAIR      71  70  96 CALM      29.91F FOG
GOLDSBORO      CLEAR     73  72  95 CALM      29.90S
WASHINGTON     CLEAR     71  70  98 CALM      29.91S
GREENVILLE       N/A     72  72 100 CALM      29.93S FOG
NEW BERN       CLEAR     73  70  90 CALM      29.91F
WILMINGTON     CLEAR     72  69  90 CALM      29.91S
$$

VAZ048-040700-
ELSEWHERE

CITY           SKY/WX    TMP DP  RH WIND       PRES   REMARKS
HARRISBURG PA  MOCLDY    75  68  78 NW3       29.92S
BALTIMORE      MOCLDY    72  69  90 CALM      29.89F
ANNAPOLIS      PTCLDY    77  73  87 NW3       29.88F
ANDREWS AFB    PTCLDY    72  70  95 CALM      29.90S
PHILADELPHIA   CLOUDY    78  70  76 CALM      29.90S
HENDERSON NC   CLEAR     70  67  89 CALM      29.93S
GREENSBORO     MOCLDY    73  67  81 CALM      29.95S
ROCKY MOUNT    CLEAR     71  70  96 CALM      29.91S FOG
$$

VAZ100-040700-
MARINE

STATION/POSITION TIME  TEMP    WIND        PRES    WAVE   SWELL
                       AIR SEA DIR/SP/G            HT/PER HT/PER
                 (UTC) (F)     (DEG/KT/KT) (MB)    (FT/S) (FT/S)
BRANDYWINE LGT   0500   76 77  160/  5/  6 1012.5R
CAPE MAY NJ      0500   74 81  100/  2/  2 1011.8R
LEWES DE         0500   76 76  260/  2/  3 1011.9R
15NM E FENWICK I 0550   79 80   CALM  /  2 1012.0S   1/12   2/12
OCEAN-CITY-INLET 0500   77 79  330/  4/  6 1011.0S
GOOSES REEF MD   0600   81 80  330/  6/  6 1013.0F
COVE POINT MD    0500   81     290/  3/  5 1012.6F
SOLOMONS ISLAND  0500      82                N/A
BISHOPS HEAD MD  0500   82 84  270/  6/  7 1011.2R
PINEY POINT MD   0505          170/  1/  2   N/A
POTOMAC MD       0600   81 82  330/  4/  4 1010.9S
CAMBRIDGE MD     0500   79 82  240/  2/  3 1011.3R
LEWISETTA VA     0500   79 83  230/  1/  3 1011.6F
RAPPAHANNOCK LGT 0500          230/  5/  5 1012.5F
STINGRAY PT      0600   81 81  280/  6/  8 1012.3F   0
YORK RVR RNG VA  0500   80     260/  4/  5 1011.4F
JAMESTOWN VA     0600   78 82  240/  4/  4   N/A
DOMINION TERM VA 0500   80     250/  5/  6 1012.0S
KIPTOPEKE VA     0500      80  200/  1/  1   N/A
CHES BAY BRIDGE  0500   79 80  190/  4/  5 1011.7S
CAPE HENRY VA    0500   78     210/  6/  8   N/A
CHESAPEAKE LGHT  0500   80     230/  8/  9 1012.8S
WILLOUBY STN VA  0500   79      CALM  /  1 1013.0S
CAPE HENRY BUOY  0528      80                N/A     1/13
1ST LANDING BUOY 0600      79              1011.6F   1
CAPE CHARLES BUO 0526      80                N/A     1/10   2/10
OFFSHORE WE BUOY 0511      80                N/A     1/13   2/13
64NM E OF VA BCH 0550   79 79  260/  6/  8 1011.5F   1/12   2/12
DUCK PIER NC     0500   79 80  240/  6/  6 1011.5F
44100 DUCK FRF   0524      79                N/A     1/12
44056 DUCK FRF   0511      80                N/A     1/13
OREGON INLET NC  0500   80 83  260/  4/  6 1012.3F
HATTERAS NC      0500   81 83  290/  5/  6 1012.3F
DIAMOND SHLS NC  0550   81 85  320/  6/  8 1012.5F   1/12   2/12
CAPE LOOKOUT NC  0600   80     320/  4/  6 1012.3F
$$


USA.gov is the U.S. government's official web portal to all federal, state and local government web resources and services.